West Plains, MO

7:55 AM CDT on May 25, 2017 (GMT -0500)
West Plains Municipal

Weather History for KUNO - July, 2013

Change the Weather History Date:

Sunday, July 21, 2013

  Actual Average Record
Temperature  
Mean Temperature 77 °F 78 °F  
Max Temperature 84 °F 90 °F 100 °F (1964)
Min Temperature 70 °F 67 °F 54 °F (1970)
Degree Days  
Heating Degree Days 0 0  
Month to date heating degree days 0 0  
Since 1 June heating degree days 9 5  
Since 1 July heating degree days 0 0  
Cooling Degree Days 12 13  
Month to date cooling degree days 194 269  
Year to date cooling degree days 454 657  
Since 1 June cooling degree days 342 535  
Growing Degree Days 26 (Base 50)    
Moisture  
Dew Point 70 °F    
Average Humidity 83    
Maximum Humidity 100    
Minimum Humidity 65    
Precipitation  
Precipitation 2.03 in 0.12 in 2.03 in (2013)
Month to date precipitation 2.39 2.52  
Year to date precipitation 27.88 25.81  
Sea Level Pressure  
Sea Level Pressure 29.93 in    
Wind  
Wind Speed 4 mph (SSE)    
Max Wind Speed 22 mph    
Max Gust Speed 30 mph    
Visibility 6 miles    
Events Rain , Thunderstorm    
T = Trace of Precipitation, MM = Missing Value Source: NWS Daily Summary

Daily Weather History Graph

Daily Weather History Graph

Search for Another Location

Airport or City:

Trip Planner

Search our weather history database for the weather conditions in past years. The results will help you decide how hot, cold, wet, or windy it might be!

Date:

Astronomy

Jul. 21, 2013 Rise Set
Actual Time 6:04 AM CDT 8:23 PM CDT
Civil Twilight 5:35 AM CDT 8:52 PM CDT
Nautical Twilight 4:58 AM CDT 9:28 PM CDT
Astronomical Twilight 4:19 AM CDT 10:08 PM CDT
Moon 7:22 PM CDT (7/21) 4:50 AM CDT (7/21)
Length of Visible Light 15h 17m
Length of Day
14h 18m
Waxing Gibbous, 98% of the Moon is Illuminated
Jul 21
Waxing Gibbous
Jul 22
Full
Jul 29
Last Quarter
Aug 6
New
Aug 14
First Quarter

Hourly Weather History & Observations

Time (CDT) Temp. Heat Index Dew Point Humidity Pressure Visibility Wind Dir Wind Speed Gust Speed Precip Events Conditions
12:53 AM 70.0 °F - 69.1 °F 97% 29.93 in 10.0 mi Calm Calm - N/A   Clear
1:53 AM 70.0 °F - 69.1 °F 97% 29.94 in 10.0 mi Calm Calm - N/A   Clear
2:53 AM 70.0 °F - 69.1 °F 97% 29.92 in 8.0 mi East 4.6 mph - N/A   Partly Cloudy
3:04 AM 69.8 °F - 69.8 °F 100% 29.95 in 8.0 mi ESE 3.5 mph - N/A   Scattered Clouds
3:53 AM 70.0 °F - 69.1 °F 97% 29.92 in 9.0 mi Calm Calm - N/A   Clear
4:53 AM 70.0 °F - 69.1 °F 97% 29.92 in 9.0 mi Calm Calm - N/A   Clear
5:53 AM 70.0 °F - 69.1 °F 97% 29.92 in 10.0 mi Calm Calm - N/A   Overcast
6:53 AM 71.1 °F - 69.1 °F 93% 29.94 in 9.0 mi Calm Calm - N/A   Mostly Cloudy
7:53 AM 71.1 °F - 69.1 °F 93% 29.95 in 10.0 mi South 4.6 mph - N/A   Overcast
8:53 AM 72.0 °F - 69.1 °F 91% 29.95 in 10.0 mi Calm Calm - 0.00 in Rain Light Rain
9:53 AM 77.0 °F - 68.0 °F 74% 29.95 in 10.0 mi Calm Calm - 0.00 in   Clear
10:53 AM 79.0 °F - 69.1 °F 72% 29.95 in 10.0 mi SW 5.8 mph - N/A   Scattered Clouds
11:53 AM 82.0 °F 85.9 °F 70.0 °F 67% 29.93 in 10.0 mi Calm Calm - N/A   Partly Cloudy
12:53 PM 82.9 °F 86.5 °F 69.1 °F 63% 29.91 in 10.0 mi WNW 3.5 mph - N/A   Mostly Cloudy
1:07 PM 82.4 °F 86.3 °F 69.8 °F 66% 29.95 in 10.0 mi Variable 3.5 mph - N/A Thunderstorm Mostly Cloudy
1:24 PM 78.8 °F - 66.2 °F 65% 29.95 in 9.0 mi SE 4.6 mph - 0.00 in Rain , Thunderstorm Light Thunderstorms and Rain
1:48 PM 78.8 °F - 66.2 °F 65% 29.93 in 10.0 mi East 5.8 mph - 0.00 in Thunderstorm Mostly Cloudy
1:53 PM 79.0 °F - 66.9 °F 66% 29.89 in 10.0 mi East 6.9 mph - 0.00 in Thunderstorm Scattered Clouds
2:11 PM 78.8 °F - 68.0 °F 69% 29.92 in 10.0 mi Calm Calm - N/A   Mostly Cloudy
2:42 PM 75.2 °F - 69.8 °F 83% 29.92 in 10.0 mi Variable 4.6 mph - N/A Thunderstorm Clear
2:53 PM 75.0 °F - 71.1 °F 87% 29.92 in 9.0 mi WSW 17.3 mph 29.9 mph 0.01 in Rain , Thunderstorm Light Thunderstorms and Rain
2:58 PM 71.6 °F - 68.0 °F 88% 29.95 in 2.0 mi WSW 17.3 mph 29.9 mph 0.05 in Rain , Thunderstorm Heavy Thunderstorms and Rain
3:01 PM 71.6 °F - 69.8 °F 94% 29.94 in 1.0 mi WSW 17.3 mph 29.9 mph 0.12 in Rain , Thunderstorm Heavy Thunderstorms and Rain
3:03 PM 71.6 °F - 69.8 °F 94% 29.94 in 0.8 mi West 15.0 mph 29.9 mph 0.15 in Rain , Thunderstorm Heavy Thunderstorms and Rain
3:13 PM 69.8 °F - 68.0 °F 94% 29.96 in 0.8 mi SW 10.4 mph 21.9 mph 0.33 in Rain , Thunderstorm Heavy Thunderstorms and Rain
3:16 PM 69.8 °F - 68.0 °F 94% 29.96 in 1.0 mi SW 8.1 mph 21.9 mph 0.34 in Rain , Thunderstorm Heavy Thunderstorms and Rain
3:21 PM 69.8 °F - 69.8 °F 100% 29.96 in 2.0 mi Variable 4.6 mph 16.1 mph 0.35 in Rain , Thunderstorm Light Thunderstorms and Rain
3:29 PM 69.8 °F - 69.8 °F 100% 29.96 in 4.0 mi SW 3.5 mph - 0.36 in Rain , Thunderstorm Light Thunderstorms and Rain
3:34 PM 69.8 °F - 69.8 °F 100% 29.96 in 1.5 mi Calm Calm - 0.40 in Rain , Thunderstorm Heavy Rain
3:42 PM 71.6 °F - 69.8 °F 94% 29.95 in 1.2 mi ESE 4.6 mph - 0.42 in Rain Rain
3:46 PM 71.6 °F - 69.8 °F 94% 29.96 in 3.0 mi ESE 3.5 mph - 0.43 in Rain Rain
3:53 PM 71.1 °F - 69.1 °F 93% 29.92 in 2.5 mi ESE 8.1 mph - 0.46 in Rain Heavy Rain
4:06 PM 71.6 °F - 69.8 °F 94% 29.94 in 4.0 mi ESE 6.9 mph - 0.03 in Rain Rain
4:36 PM 71.6 °F - 69.8 °F 94% 29.94 in 10.0 mi ENE 5.8 mph - 0.05 in Rain Light Rain
4:48 PM 73.4 °F - 71.6 °F 94% 29.94 in 10.0 mi NE 6.9 mph - 0.05 in   Mostly Cloudy
4:53 PM 73.0 °F - 71.1 °F 93% 29.91 in 10.0 mi NE 6.9 mph - 0.05 in   Overcast
5:14 PM 73.4 °F - 69.8 °F 88% 29.94 in 10.0 mi East 3.5 mph - N/A   Mostly Cloudy
5:41 PM 75.2 °F - 69.8 °F 83% 29.92 in 10.0 mi East 3.5 mph - N/A   Partly Cloudy
5:53 PM 73.9 °F - 70.0 °F 87% 29.88 in 10.0 mi East 3.5 mph - N/A   Scattered Clouds
6:53 PM 73.0 °F - 71.1 °F 93% 29.86 in 10.0 mi ESE 3.5 mph - 0.01 in   Overcast
7:37 PM 73.4 °F - 71.6 °F 94% 29.91 in 2.0 mi Calm Calm - 0.03 in Rain Rain
7:53 PM 73.0 °F - 70.0 °F 90% 29.88 in 2.0 mi Calm Calm - 0.08 in Rain Rain
8:01 PM 73.4 °F - 69.8 °F 88% 29.91 in 5.0 mi Calm Calm - 0.00 in Rain Light Rain
8:53 PM 72.0 °F - 71.1 °F 97% 29.88 in 8.0 mi Calm Calm - 0.00 in   Overcast
9:53 PM 72.0 °F - 71.1 °F 97% 29.88 in 6.0 mi Calm Calm - N/A   Overcast
10:19 PM 71.6 °F - 71.6 °F 100% 29.92 in 6.0 mi Calm Calm - 0.00 in Rain , Thunderstorm Light Rain
10:40 PM 71.6 °F - 71.6 °F 100% 29.93 in 6.0 mi Calm Calm - 0.00 in   Overcast
10:48 PM 71.6 °F - 71.6 °F 100% 29.93 in 1.0 mi South 4.6 mph - 0.16 in Rain Heavy Rain
10:53 PM 72.0 °F - 71.1 °F 97% 29.88 in 1.0 mi South 6.9 mph - 0.17 in Rain Light Rain
10:56 PM 71.6 °F - 71.6 °F 100% 29.92 in 1.5 mi South 6.9 mph - 0.01 in Rain Light Rain
10:58 PM 71.6 °F - 69.8 °F 94% 29.92 in 3.0 mi South 6.9 mph - 0.01 in Rain Light Rain
11:20 PM 71.6 °F - 69.8 °F 94% 29.93 in 1.5 mi South 3.5 mph - 0.12 in Rain Heavy Rain
11:30 PM 71.6 °F - 69.8 °F 94% 29.93 in 3.0 mi South 3.5 mph - 0.14 in Rain Light Rain
11:43 PM 71.6 °F - 69.8 °F 94% 29.93 in 1.2 mi Calm Calm - 0.29 in Rain Heavy Rain
11:45 PM 71.6 °F - 69.8 °F 94% 29.92 in 0.8 mi Calm Calm - 0.40 in Rain Heavy Rain
11:53 PM 70.0 °F - 70.0 °F 100% 29.88 in 0.8 mi South 6.9 mph - 0.59 in Rain Heavy Rain
11:56 PM 71.6 °F - 69.8 °F 94% 29.92 in 1.2 mi SSW 10.4 mph - 0.02 in Rain Heavy Rain